sat.trackr.live / text

‹ back to catalog

STARLINK-34467

NORAD 64423 · 2025-129M

PAYLOAD ACTIVE UNKNOWN

§ Identity

Operator
Country
US
Launch date
2025-06-17
Launch site
AFWTR
Launch vehicle
Mass (kg)
RCS (m²)

Purposes: comms

External: N2YO · Heavens-Above · Gunter

§ Orbital elements

Epoch: 2026-05-24T23:13:53.751072Z

Period
96.11 min
Inclination
70.0003°
Eccentricity
0.0003314
Mean motion
14.98336455 rev/d
Perigee alt
569.7 km
Apogee alt
574.3 km
Semi-major
6,950.2 km
B*
2.3289e-4
RAAN
242.1059°
Arg perigee
269.4965°
Mean anomaly
90.5814°
Rev number
5,271

§ Raw data

STARLINK-344671 64423U 25129M   26144.96798323  .00002687  00000+0  23289-3 0  99912 64423  70.0003 242.1059 0003314 269.4965  90.5814 14.98336455 52716

JSON: /api/v1/satellites/64423 · /tle

For live sub-satellite position, see the globe view (requires WebGL).

§ Visibility from observer

Set your observer location to see the next 7 days of passes ≥ 10°. The values pass through the URL so the page stays shareable.

No JS? Fill the form by hand. The geolocation button needs JavaScript.